Greenwood, FL

3:30 PM CDT on September 30, 2016 (GMT -0500)
Marianna Municipal

Weather History for KMAI - April, 2012

Change the Weather History Date:

Sunday, April 1, 2012

  Actual Average Record
Temperature  
Mean Temperature 76 °F 63 °F  
Max Temperature 86 °F 76 °F 86 °F (2012)
Min Temperature 66 °F 51 °F 37 °F (2003)
Degree Days  
Heating Degree Days 0    
Month to date heating degree days  
Since 1 July heating degree days  
Cooling Degree Days 11    
Month to date cooling degree days  
Year to date cooling degree days  
Growing Degree Days 26 (Base 50)    
Moisture  
Dew Point 65 °F    
Average Humidity 78    
Maximum Humidity 94    
Minimum Humidity 38    
Precipitation  
Precipitation 0.01 in 0.18 in 2.94 in (2016)
Month to date precipitation 0.18  
Year to date precipitation 15.70  
Sea Level Pressure  
Sea Level Pressure 29.89 in    
Wind  
Wind Speed 6 mph (WSW)    
Max Wind Speed 12 mph    
Max Gust Speed -    
Visibility 8 miles    
Events      
T = Trace of Precipitation, MM = Missing Value Source: NWS Daily Summary

Daily Weather History Graph

Daily Weather History Graph

Search for Another Location

Airport or City:

Trip Planner

Search our weather history database for the weather conditions in past years. The results will help you decide how hot, cold, wet, or windy it might be!

Date:

Astronomy

Apr. 01, 2012 Rise Set
Actual Time 6:29 AM CDT 7:00 PM CDT
Civil Twilight 6:04 AM CDT 7:24 PM CDT
Nautical Twilight 5:36 AM CDT 7:53 PM CDT
Astronomical Twilight 5:07 AM CDT 8:22 PM CDT
Moon 1:50 PM CDT (4/1) 2:43 AM CDT (4/1)
Length of Visible Light 13h 19m
Length of Day
12h 31m
Waxing Gibbous, 69% of the Moon is Illuminated
Apr 1
Waxing Gibbous
Apr 6
Full
Apr 13
Last Quarter
Apr 21
New
Apr 29
First Quarter

Hourly Weather History & Observations

Time (CDT) Temp. Heat Index Dew Point Humidity Pressure Visibility Wind Dir Wind Speed Gust Speed Precip Events Conditions
12:53 AM 66.9 °F - 64.9 °F 93% 29.89 in 9.0 mi West 8.1 mph - N/A   Clear
1:53 AM 66.9 °F - 64.9 °F 93% 29.87 in 7.0 mi WSW 4.6 mph - N/A   Clear
2:06 AM 66.2 °F - 64.4 °F 94% 29.87 in 7.0 mi WSW 5.8 mph - N/A   Scattered Clouds
2:16 AM 68.0 °F - 64.4 °F 88% 29.87 in 7.0 mi WSW 6.9 mph - N/A   Mostly Cloudy
2:53 AM 68.0 °F - 66.0 °F 93% 29.86 in 6.0 mi West 8.1 mph - 0.01 in   Overcast
3:21 AM 68.0 °F - 66.2 °F 94% 29.87 in 4.0 mi West 5.8 mph - N/A   Overcast
3:53 AM 69.1 °F - 66.9 °F 93% 29.88 in 5.0 mi West 8.1 mph - N/A   Overcast
4:17 AM 69.8 °F - 66.2 °F 88% 29.88 in 5.0 mi West 8.1 mph - N/A   Overcast
5:53 AM 69.1 °F - 66.9 °F 93% 29.90 in 6.0 mi WNW 3.5 mph - N/A   Overcast
6:43 AM 69.8 °F - 66.2 °F 88% 29.92 in 4.0 mi Calm Calm - N/A   Overcast
7:53 AM 70.0 °F - 66.0 °F 87% 29.94 in 6.0 mi WSW 3.5 mph - N/A   Overcast
9:53 AM 75.0 °F - 66.0 °F 73% 29.96 in 10.0 mi NW 4.6 mph - N/A   Mostly Cloudy
10:18 AM 75.2 °F - 66.2 °F 73% 29.96 in 10.0 mi NW 4.6 mph - N/A   Mostly Cloudy
10:53 AM 77.0 °F - 66.0 °F 69% 29.95 in 10.0 mi Calm Calm - N/A   Scattered Clouds
11:53 AM 80.1 °F 82.1 °F 66.0 °F 62% 29.93 in 10.0 mi Variable 5.8 mph - N/A   Partly Cloudy
12:53 PM 81.0 °F 82.2 °F 63.0 °F 54% 29.93 in 10.0 mi Variable 3.5 mph - N/A   Clear
1:53 PM 84.0 °F 84.4 °F 61.0 °F 46% 29.90 in 10.0 mi SW 6.9 mph - N/A   Scattered Clouds
3:53 PM 86.0 °F 85.0 °F 57.9 °F 38% 29.85 in 10.0 mi West 11.5 mph - N/A   Partly Cloudy
6:53 PM 79.0 °F - 63.0 °F 58% 29.85 in 10.0 mi SW 8.1 mph - N/A   Clear
7:53 PM 75.9 °F - 62.1 °F 62% 29.86 in 10.0 mi SW 9.2 mph - N/A   Clear
8:53 PM 73.0 °F - 63.0 °F 71% 29.89 in 10.0 mi SW 5.8 mph - N/A   Clear
9:53 PM 70.0 °F - 64.0 °F 81% 29.88 in 10.0 mi SW 5.8 mph - N/A   Clear
10:53 PM 69.1 °F - 66.0 °F 90% 29.87 in 9.0 mi SW 5.8 mph - N/A   Clear
11:30 PM 69.8 °F - 66.2 °F 88% 29.87 in 8.0 mi SW 5.8 mph - N/A   Partly Cloudy
11:53 PM 68.0 °F - 66.0 °F 93% 29.87 in 6.0 mi SW 6.9 mph - N/A   Partly Cloudy